Voltar ao catálogo

THOR ABLESTAR DEB

AtivoLEO
NORAD 404·DEBRIS·🇺🇸 United States

Lançado Jun 29, 1961 de Cape Canaveral Space Force Station

Loading…

Próximas Passagens (próximas 24 horas)

TLE

AtualizadoSource: Space-Track

Época: Sep 10, 2026, 11:28 UTC

1   404U 61015ED  26253.47810479  .00000003  00000-0  11844-3 0  9993
2   404  66.4684 284.7748 0549597 126.4626 238.8358 12.92578992 54268

Acompanhe THOR ABLESTAR DEB em tempo real com AllMySat

Download on the App Store